Crookston, MN

12:32 PM CDT on June 26, 2017 (GMT -0500)
Crookston Municipal-Kirkwood

Weather History for KCKN - February, 2014

Change the Weather History Date:

Wednesday, February 12, 2014

  Actual Average Record
Temperature  
Mean Temperature 2 °F -  
Max Temperature 15 °F 20 °F 37 °F (2005)
Min Temperature -11 °F 3 °F -25 °F (1997)
Degree Days  
Heating Degree Days 63    
Moisture  
Dew Point -6 °F    
Average Humidity 75    
Maximum Humidity 84    
Minimum Humidity 67    
Precipitation  
Precipitation 0.00 in - - ()
Sea Level Pressure  
Sea Level Pressure 29.98 in    
Wind  
Wind Speed 7 mph (SSE)    
Max Wind Speed 21 mph    
Max Gust Speed 24 mph    
Visibility 10 miles    
Events      
Averages and records for this station are not official NWS values.
T = Trace of Precipitation, MM = Missing Value Source: NWS Daily Summary

Daily Weather History Graph

Daily Weather History Graph

Search for Another Location

Airport or City:

Trip Planner

Search our weather history database for the weather conditions in past years. The results will help you decide how hot, cold, wet, or windy it might be!

Date:

Astronomy

Feb. 12, 2014 Rise Set
Actual Time 7:37 AM CST 5:44 PM CST
Civil Twilight 7:05 AM CST 6:16 PM CST
Nautical Twilight 6:28 AM CST 6:53 PM CST
Astronomical Twilight 5:53 AM CST 7:29 PM CST
Moon 3:56 PM CST (2/12) 5:58 AM CST (2/12)
Length of Visible Light 11h 11m
Length of Day
10h 07m
Waxing Gibbous, 95% of the Moon is Illuminated
Feb 12
Waxing Gibbous
Feb 14
Full
Feb 22
Last Quarter
Mar 1
New
Mar 8
First Quarter

Hourly Weather History & Observations

Time (CST) Temp. Windchill Dew Point Humidity Pressure Visibility Wind Dir Wind Speed Gust Speed Precip Events Conditions
12:15 AM -4.0 °F -22.1 °F -9.4 °F 78% 30.08 in - NNW 11.5 mph - N/A   Clear
12:34 AM -4.0 °F -22.1 °F -9.4 °F 78% 30.08 in - North 11.5 mph - N/A   Clear
12:55 AM -4.0 °F -20.2 °F -9.4 °F 78% 30.08 in - North 9.2 mph - N/A   Clear
1:14 AM -4.0 °F -20.2 °F -9.4 °F 78% 30.08 in - North 9.2 mph - N/A   Clear
1:34 AM -5.8 °F -19.9 °F -11.2 °F 77% 30.09 in - North 6.9 mph - N/A   Clear
1:55 AM -5.8 °F -21.2 °F -11.2 °F 77% 30.10 in - North 8.1 mph - N/A   Clear
2:14 AM -5.8 °F -22.4 °F -11.2 °F 77% 30.12 in - North 9.2 mph - N/A   Clear
2:34 AM -5.8 °F -22.4 °F -11.2 °F 77% 30.13 in - NNW 9.2 mph - N/A   Clear
2:55 AM -7.6 °F -18.8 °F -11.2 °F 84% 30.14 in - NNW 4.6 mph - N/A   Clear
3:14 AM -7.6 °F - -11.2 °F 84% 30.12 in - Calm Calm - N/A   Clear
3:34 AM -7.6 °F - -13.0 °F 77% 30.14 in - Calm Calm - N/A   Clear
3:55 AM -11.2 °F - -16.6 °F 77% 30.14 in - Calm Calm - N/A   Clear
4:14 AM -9.4 °F - -14.8 °F 77% 30.14 in - Calm Calm - N/A   Unknown
4:35 AM -11.2 °F - -16.6 °F 77% 30.14 in - Calm Calm - N/A   Clear
4:55 AM -11.2 °F - -16.6 °F 77% 30.14 in - Calm Calm - N/A   Clear
5:14 AM -11.2 °F - -14.8 °F 84% 30.16 in - Calm Calm - N/A   Unknown
5:35 AM -11.2 °F - -14.8 °F 84% 30.16 in - Calm Calm - N/A   Unknown
5:55 AM -11.2 °F - -14.8 °F 84% 30.16 in - Calm Calm - N/A   Unknown
6:14 AM -11.2 °F - -16.6 °F 77% 30.16 in - Calm Calm - N/A   Clear
6:35 AM -9.4 °F -18.6 °F -14.8 °F 77% 30.17 in - South 3.5 mph - N/A   Unknown
6:55 AM -9.4 °F - -14.8 °F 77% 30.17 in - Calm Calm - N/A   Unknown
7:15 AM -9.4 °F - -14.8 °F 77% 30.18 in - Calm Calm - N/A   Unknown
7:34 AM -9.4 °F - -14.8 °F 77% 30.17 in - Calm Calm - N/A   Mostly Cloudy
7:54 AM -7.6 °F - -13.0 °F 77% 30.17 in - Calm Calm - N/A   Unknown
8:15 AM -7.6 °F - -11.2 °F 84% 30.17 in - Calm Calm - N/A   Unknown
8:35 AM -7.6 °F - -11.2 °F 84% 30.16 in 10.0 mi Calm Calm - N/A   Unknown
8:54 AM -5.8 °F - -9.4 °F 84% 30.17 in 10.0 mi Calm Calm - N/A   Scattered Clouds
9:15 AM -5.8 °F - -9.4 °F 84% 30.16 in 10.0 mi Calm Calm - N/A   Scattered Clouds
9:34 AM -4.0 °F - -9.4 °F 78% 30.15 in 10.0 mi Calm Calm - N/A   Scattered Clouds
9:54 AM -2.2 °F - -9.4 °F 71% 30.15 in 10.0 mi Calm Calm - N/A   Scattered Clouds
10:15 AM -2.2 °F - -7.6 °F 78% 30.14 in 10.0 mi Calm Calm - N/A   Scattered Clouds
10:34 AM -2.2 °F - -7.6 °F 78% 30.14 in 10.0 mi Calm Calm - N/A   Scattered Clouds
10:54 AM -0.4 °F - -7.6 °F 72% 30.14 in 10.0 mi Calm Calm - N/A   Clear
11:15 AM -0.4 °F - -7.6 °F 72% 30.13 in 10.0 mi Calm Calm - N/A   Clear
11:34 AM -0.4 °F - -7.6 °F 72% 30.12 in 10.0 mi Calm Calm - N/A   Clear
11:54 AM 1.4 °F -9.9 °F -5.8 °F 72% 30.12 in 10.0 mi South 5.8 mph - N/A   Clear
12:15 PM 1.4 °F -8.3 °F -5.8 °F 72% 30.10 in 10.0 mi South 4.6 mph - N/A   Clear
12:34 PM 1.4 °F -12.5 °F -5.8 °F 72% 30.09 in 10.0 mi South 8.1 mph - N/A   Clear
12:54 PM 1.4 °F -12.5 °F -4.0 °F 78% 30.08 in 10.0 mi SSE 8.1 mph - N/A   Clear
1:15 PM 3.2 °F -9.1 °F -4.0 °F 72% 30.06 in 10.0 mi SSE 6.9 mph - N/A   Clear
1:34 PM 3.2 °F -12.2 °F -2.2 °F 78% 30.04 in 10.0 mi South 10.4 mph - N/A   Clear
1:55 PM 3.2 °F -12.2 °F -2.2 °F 78% 30.02 in 10.0 mi South 10.4 mph - N/A   Clear
2:15 PM 5.0 °F -12.3 °F -2.2 °F 72% 30.00 in 10.0 mi South 13.8 mph - N/A   Clear
2:34 PM 5.0 °F -10.8 °F -2.2 °F 72% 29.99 in 10.0 mi South 11.5 mph - N/A   Clear
2:55 PM 5.0 °F -11.6 °F -2.2 °F 72% 29.97 in 10.0 mi South 12.7 mph - N/A   Clear
3:15 PM 5.0 °F -10.8 °F -2.2 °F 72% 29.96 in 10.0 mi SSE 11.5 mph - N/A   Clear
3:34 PM 5.0 °F -10.0 °F -2.2 °F 72% 29.95 in 10.0 mi South 10.4 mph - N/A   Clear
3:55 PM 5.0 °F -10.8 °F -2.2 °F 72% 29.94 in 10.0 mi SSE 11.5 mph - N/A   Clear
4:14 PM 5.0 °F -11.6 °F -2.2 °F 72% 29.93 in 10.0 mi SSE 12.7 mph - N/A   Clear
4:34 PM 5.0 °F -9.1 °F -2.2 °F 72% 29.93 in 10.0 mi South 9.2 mph - N/A   Scattered Clouds
4:55 PM 5.0 °F -10.8 °F -2.2 °F 72% 29.91 in 10.0 mi SSE 11.5 mph - N/A   Mostly Cloudy
5:14 PM 6.8 °F -5.9 °F -0.4 °F 72% 29.89 in 10.0 mi SSE 8.1 mph - N/A   Overcast
5:34 PM 6.8 °F -7.8 °F -0.4 °F 72% 29.89 in 10.0 mi SSE 10.4 mph - N/A   Overcast
5:55 PM 6.8 °F -7.8 °F -0.4 °F 72% 29.87 in 10.0 mi SE 10.4 mph - N/A   Overcast
6:14 PM 6.8 °F -9.3 °F -0.4 °F 72% 29.84 in 10.0 mi SE 12.7 mph - N/A   Overcast
6:34 PM 6.8 °F -7.8 °F -0.4 °F 72% 29.83 in 10.0 mi SE 10.4 mph - N/A   Overcast
6:55 PM 6.8 °F -9.3 °F -0.4 °F 72% 29.81 in 10.0 mi SE 12.7 mph - N/A   Mostly Cloudy
7:14 PM 6.8 °F -10.0 °F -0.4 °F 72% 29.80 in 10.0 mi SE 13.8 mph - N/A   Scattered Clouds
7:34 PM 6.8 °F -9.3 °F -0.4 °F 72% 29.77 in 10.0 mi SE 12.7 mph - N/A   Clear
7:55 PM 6.8 °F -7.8 °F -0.4 °F 72% 29.75 in 10.0 mi SE 10.4 mph - N/A   Clear
8:14 PM 6.8 °F -9.3 °F -0.4 °F 72% 29.74 in 10.0 mi ESE 12.7 mph - N/A   Mostly Cloudy
8:34 PM 8.6 °F -8.9 °F -0.4 °F 67% 29.70 in 10.0 mi SE 16.1 mph - N/A   Mostly Cloudy
8:55 PM 8.6 °F -8.9 °F 1.4 °F 73% 29.68 in 10.0 mi SE 16.1 mph - N/A   Scattered Clouds
9:14 PM 8.6 °F -7.0 °F 1.4 °F 73% 29.66 in 10.0 mi SE 12.7 mph - N/A   Mostly Cloudy
9:35 PM 10.4 °F -7.2 °F 1.4 °F 67% 29.61 in 10.0 mi SE 17.3 mph - N/A   Scattered Clouds
9:54 PM 12.2 °F -4.8 °F 3.2 °F 67% 29.60 in 10.0 mi SE 17.3 mph - N/A   Scattered Clouds
10:15 PM 12.2 °F -6.3 °F 5.0 °F 73% 29.57 in 10.0 mi SSE 20.7 mph - N/A   Mostly Cloudy
10:35 PM 14.0 °F -3.4 °F 5.0 °F 67% 29.54 in 10.0 mi SE 19.6 mph - N/A   Overcast
10:54 PM 14.0 °F -3.4 °F 6.8 °F 73% 29.52 in 10.0 mi SSE 19.6 mph - N/A   Mostly Cloudy
11:15 PM 14.0 °F -3.4 °F 6.8 °F 73% 29.48 in 10.0 mi SSE 19.6 mph - N/A   Mostly Cloudy
11:35 PM 15.8 °F -1.5 °F 6.8 °F 68% 29.47 in 10.0 mi SSE 20.7 mph - N/A   Scattered Clouds
11:54 PM 15.8 °F -0.6 °F 8.6 °F 73% 29.45 in 10.0 mi SSE 18.4 mph 24.2 mph N/A   Mostly Cloudy